VTK605 ENSB-ULMM

Flight info

Callsign VTK605
Flight time 1h 38m
Altitude 39000
Route AMPIS DCT BATSI DCT IPLIL DCT KROTA DCT ULMER
Aircraft B38M/M-SDE1FGHILORVWXY/HB1

Departure

Time 2026-05-06 09:08
Airport Svalbard Airport, Longyear (ENSB)

Arrival

Time 2026-05-06 10:47
Airport Emperor Nicholas II Murmansk Airport (ULMM)
Time Latitude Longitude Altitude Speed Heading
2026-05-06 08:47 78.24600 15.49804 90 ft 0 kts 104°
2026-05-06 08:56 78.24600 15.49814 90 ft 0 kts 104°
2026-05-06 09:02 78.24597 15.49855 90 ft 3 kts 104°
2026-05-06 09:03 78.24592 15.49952 90 ft 3 kts 110°
2026-05-06 09:03 78.24546 15.50007 93 ft 6 kts 196°
2026-05-06 09:03 78.24493 15.49930 90 ft 10 kts 197°
2026-05-06 09:03 78.24445 15.49702 90 ft 11 kts 265°
2026-05-06 09:04 78.24456 15.49271 90 ft 14 kts 278°
2026-05-06 09:04 78.24471 15.48804 90 ft 12 kts 283°
2026-05-06 09:04 78.24496 15.48413 91 ft 13 kts 288°
2026-05-06 09:04 78.24526 15.47941 93 ft 16 kts 285°
2026-05-06 09:05 78.24554 15.47401 92 ft 16 kts 284°
2026-05-06 09:05 78.24588 15.46822 90 ft 19 kts 289°
2026-05-06 09:05 78.24632 15.46172 91 ft 21 kts 287°
2026-05-06 09:05 78.24675 15.45437 90 ft 24 kts 285°
2026-05-06 09:06 78.24720 15.44630 90 ft 26 kts 285°
2026-05-06 09:06 78.24769 15.43743 92 ft 27 kts 285°
2026-05-06 09:06 78.24821 15.42806 90 ft 30 kts 285°
2026-05-06 09:06 78.24865 15.42030 93 ft 23 kts 285°
2026-05-06 09:07 78.24897 15.41343 92 ft 15 kts 275°
2026-05-06 09:07 78.24913 15.41198 90 ft 1 kts
2026-05-06 09:07 78.24912 15.41324 90 ft 10 kts 120°
2026-05-06 09:07 78.24879 15.41778 93 ft 15 kts 104°
2026-05-06 09:08 78.24844 15.42402 91 ft 26 kts 105°
2026-05-06 09:08 78.24729 15.44461 92 ft 106 kts 105°
2026-05-06 09:08 78.24477 15.49129 267 ft 164 kts 103°
2026-05-06 09:08 78.24127 15.54781 1228 ft 176 kts 108°
2026-05-06 09:09 78.23761 15.60567 2404 ft 186 kts 103°
2026-05-06 09:09 78.23418 15.66955 3293 ft 201 kts 105°
2026-05-06 09:09 78.22796 15.73484 3995 ft 228 kts 119°
2026-05-06 09:09 78.21842 15.79673 5289 ft 228 kts 121°
2026-05-06 09:10 78.20859 15.86140 6196 ft 246 kts 122°
2026-05-06 09:10 78.19809 15.92945 7257 ft 252 kts 123°
2026-05-06 09:10 78.18734 15.99828 8370 ft 259 kts 123°
2026-05-06 09:10 78.17672 16.07018 9454 ft 263 kts 118°
2026-05-06 09:11 78.16715 16.14733 10483 ft 270 kts 118°
2026-05-06 09:11 78.15703 16.22764 11173 ft 288 kts 118°
2026-05-06 09:11 78.14611 16.31306 11838 ft 304 kts 119°
2026-05-06 09:11 78.13468 16.40152 12662 ft 312 kts 119°
2026-05-06 09:12 78.12304 16.49099 13725 ft 316 kts 119°
2026-05-06 09:12 78.11120 16.58152 14595 ft 321 kts 119°
2026-05-06 09:12 78.09913 16.67333 15445 ft 324 kts 120°
2026-05-06 09:12 78.08694 16.76574 16287 ft 328 kts 120°
2026-05-06 09:13 78.07453 16.85927 17091 ft 332 kts 120°
2026-05-06 09:13 78.06196 16.95362 17909 ft 336 kts 120°
2026-05-06 09:13 78.04919 17.04898 18675 ft 340 kts 120°
2026-05-06 09:13 78.03627 17.14513 19363 ft 344 kts 121°
2026-05-06 09:14 78.02313 17.24230 20061 ft 347 kts 121°
2026-05-06 09:14 78.01002 17.33892 20686 ft 351 kts 121°
2026-05-06 09:14 77.99640 17.43874 21360 ft 354 kts 121°
2026-05-06 09:14 77.98301 17.53658 22015 ft 358 kts 121°
2026-05-06 09:15 77.96926 17.63655 22653 ft 361 kts 122°
2026-05-06 09:15 77.95213 17.72697 23280 ft 368 kts 141°
2026-05-06 09:15 77.93045 17.79397 23871 ft 373 kts 145°
2026-05-06 09:15 77.90863 17.85920 24330 ft 377 kts 146°
2026-05-06 09:16 77.88626 17.92487 24830 ft 380 kts 146°
2026-05-06 09:16 77.86355 17.99052 25310 ft 384 kts 146°
2026-05-06 09:16 77.84056 18.05631 25807 ft 386 kts 146°
2026-05-06 09:16 77.81746 18.12203 26302 ft 389 kts 146°
2026-05-06 09:17 77.79415 18.18805 26736 ft 393 kts 146°
2026-05-06 09:17 77.77065 18.25418 27232 ft 395 kts 145°
2026-05-06 09:17 77.74699 18.32049 27705 ft 398 kts 145°
2026-05-06 09:17 77.72305 18.38731 28070 ft 403 kts 147°
2026-05-06 09:18 77.69876 18.45476 28477 ft 406 kts 147°
2026-05-06 09:18 77.67433 18.52232 28888 ft 409 kts 146°
2026-05-06 09:18 77.64976 18.58998 29354 ft 411 kts 147°
2026-05-06 09:18 77.62489 18.65811 29706 ft 416 kts 146°
2026-05-06 09:19 77.59992 18.72620 30206 ft 416 kts 146°
2026-05-06 09:19 77.57478 18.79450 30469 ft 421 kts 147°
2026-05-06 09:19 77.54939 18.86305 30736 ft 425 kts 147°
2026-05-06 09:19 77.52410 18.93103 31054 ft 427 kts 146°
2026-05-06 09:20 77.49830 19.00015 31345 ft 429 kts 146°
2026-05-06 09:20 77.47231 19.06933 31618 ft 432 kts 146°
2026-05-06 09:20 77.44612 19.13879 31891 ft 435 kts 146°
2026-05-06 09:20 77.41981 19.20818 32188 ft 438 kts 148°
2026-05-06 09:21 77.39319 19.27810 32409 ft 443 kts 147°
2026-05-06 09:21 77.36636 19.34821 32676 ft 445 kts 147°
2026-05-06 09:21 77.33942 19.41825 32953 ft 447 kts 147°
2026-05-06 09:21 77.31228 19.48851 33222 ft 450 kts 147°
2026-05-06 09:22 77.28491 19.55900 33475 ft 453 kts 148°
2026-05-06 09:22 77.25739 19.62947 33694 ft 457 kts 148°
2026-05-06 09:22 77.22963 19.70023 34010 ft 458 kts 149°
2026-05-06 09:22 77.20181 19.77086 34292 ft 460 kts 148°
2026-05-06 09:23 77.17391 19.84130 34598 ft 459 kts 148°
2026-05-06 09:23 77.14601 19.91138 34897 ft 459 kts 147°
2026-05-06 09:23 77.11828 19.98072 35216 ft 458 kts 148°
2026-05-06 09:23 77.09036 20.05023 35479 ft 460 kts 149°
2026-05-06 09:24 77.06229 20.11968 35749 ft 460 kts 149°
2026-05-06 09:24 77.03431 20.18858 36060 ft 459 kts 148°
2026-05-06 09:24 77.00639 20.25698 36387 ft 459 kts 148°
2026-05-06 09:24 76.97843 20.32516 36657 ft 459 kts 149°
2026-05-06 09:25 76.95068 20.39256 36905 ft 460 kts 149°
2026-05-06 09:25 76.92259 20.46043 37200 ft 460 kts 148°
2026-05-06 09:25 76.89454 20.52787 37488 ft 460 kts 150°
2026-05-06 09:25 76.86638 20.59527 37698 ft 461 kts 150°
2026-05-06 09:26 76.83813 20.66248 37973 ft 461 kts 149°
2026-05-06 09:26 76.80999 20.72922 38266 ft 460 kts 149°
2026-05-06 09:26 76.78174 20.79582 38487 ft 461 kts 150°
2026-05-06 09:26 76.75343 20.86229 38698 ft 462 kts 149°
2026-05-06 09:27 76.72512 20.92839 38916 ft 462 kts 150°
2026-05-06 09:27 76.69669 20.99443 39059 ft 463 kts 150°
2026-05-06 09:27 76.66829 21.06014 39112 ft 464 kts 150°
2026-05-06 09:28 76.61133 21.19102 39094 ft 461 kts 150°
2026-05-06 09:28 76.55464 21.32000 39104 ft 462 kts 151°
2026-05-06 09:29 76.49774 21.44824 39091 ft 461 kts 150°
2026-05-06 09:29 76.44094 21.57503 39081 ft 461 kts 150°
2026-05-06 09:30 76.38410 21.70076 39077 ft 461 kts 151°
2026-05-06 09:30 76.32740 21.82502 39077 ft 462 kts 151°
2026-05-06 09:31 76.27027 21.94911 39072 ft 461 kts 150°
2026-05-06 09:31 76.21314 22.07200 39066 ft 463 kts 152°
2026-05-06 09:32 76.16538 22.17390 39065 ft 463 kts 152°
2026-05-06 09:32 76.10793 22.29543 39061 ft 463 kts 152°
2026-05-06 09:33 76.05046 22.41587 39052 ft 462 kts 152°
2026-05-06 09:33 75.99308 22.53507 39050 ft 462 kts 152°
2026-05-06 09:34 75.93551 22.65356 39048 ft 462 kts 152°
2026-05-06 09:34 75.87789 22.77113 39046 ft 462 kts 152°
2026-05-06 09:35 75.82026 22.88764 39036 ft 462 kts 152°
2026-05-06 09:35 75.76263 23.00314 39032 ft 463 kts 153°
2026-05-06 09:36 75.70471 23.11816 39038 ft 463 kts 152°
2026-05-06 09:36 75.64672 23.23231 39023 ft 463 kts 153°
2026-05-06 09:37 75.58914 23.34464 39017 ft 463 kts 153°
2026-05-06 09:37 75.53116 23.45680 39014 ft 463 kts 153°
2026-05-06 09:38 75.47303 23.56824 39007 ft 463 kts 153°
2026-05-06 09:38 75.41501 23.67856 38998 ft 462 kts 153°
2026-05-06 09:39 75.35676 23.78827 38996 ft 463 kts 153°
2026-05-06 09:39 75.29866 23.89679 38998 ft 463 kts 153°
2026-05-06 09:40 75.24039 24.00469 38988 ft 463 kts 154°
2026-05-06 09:40 75.15286 24.16510 38980 ft 463 kts 153°
2026-05-06 09:41 75.09451 24.27089 38973 ft 463 kts 154°
2026-05-06 09:41 75.03612 24.37584 38963 ft 463 kts 154°
2026-05-06 09:42 74.97749 24.48034 38964 ft 463 kts 154°
2026-05-06 09:42 74.91895 24.58377 38957 ft 463 kts 154°
2026-05-06 09:43 74.86030 24.68662 38946 ft 463 kts 154°
2026-05-06 09:43 74.80166 24.78853 38945 ft 463 kts 154°
2026-05-06 09:44 74.74297 24.88971 38942 ft 463 kts 154°
2026-05-06 09:44 74.68415 24.99024 38937 ft 463 kts 154°
2026-05-06 09:45 74.62580 25.08916 38937 ft 463 kts 154°
2026-05-06 09:45 74.56655 25.18878 38928 ft 463 kts 155°
2026-05-06 09:46 74.50807 25.28633 38929 ft 464 kts 155°
2026-05-06 09:46 74.44904 25.38401 38920 ft 464 kts 155°
2026-05-06 09:47 74.39005 25.48079 38920 ft 463 kts 155°
2026-05-06 09:47 74.33111 25.57675 38915 ft 464 kts 155°
2026-05-06 09:48 74.27197 25.67223 38913 ft 463 kts 155°
2026-05-06 09:48 74.21283 25.76698 38903 ft 464 kts 155°
2026-05-06 09:49 74.15371 25.86094 38903 ft 463 kts 155°
2026-05-06 09:49 74.09448 25.95429 38896 ft 464 kts 156°
2026-05-06 09:50 74.03556 26.04645 38891 ft 464 kts 155°
2026-05-06 09:50 73.97594 26.13898 38893 ft 464 kts 155°
2026-05-06 09:51 73.91697 26.22976 38893 ft 464 kts 155°
2026-05-06 09:51 73.85756 26.32051 38879 ft 464 kts 156°
2026-05-06 09:52 73.79806 26.41073 38886 ft 464 kts 156°
2026-05-06 09:52 73.73868 26.49999 38878 ft 463 kts 156°
2026-05-06 09:53 73.67927 26.58868 38872 ft 464 kts 156°
2026-05-06 09:53 73.61963 26.67702 38872 ft 464 kts 156°
2026-05-06 09:54 73.56001 26.76463 38873 ft 463 kts 156°
2026-05-06 09:54 73.50049 26.85147 38861 ft 464 kts 156°
2026-05-06 09:55 73.44089 26.93770 38861 ft 463 kts 157°
2026-05-06 09:55 73.38160 27.02286 38862 ft 464 kts 157°
2026-05-06 09:56 73.32188 27.10800 38858 ft 463 kts 157°
2026-05-06 09:56 73.26224 27.19240 38853 ft 464 kts 157°
2026-05-06 09:57 73.20240 27.27643 38853 ft 464 kts 157°
2026-05-06 09:57 73.14249 27.35992 38854 ft 464 kts 158°
2026-05-06 09:58 73.08250 27.44296 38858 ft 464 kts 158°
2026-05-06 09:58 73.02267 27.52509 38854 ft 464 kts 158°
2026-05-06 09:59 72.96272 27.60683 38851 ft 464 kts 158°
2026-05-06 09:59 72.90268 27.68806 38849 ft 464 kts 158°
2026-05-06 10:00 72.84266 27.76869 38850 ft 464 kts 158°
2026-05-06 10:00 72.78254 27.84886 38845 ft 464 kts 158°
2026-05-06 10:01 72.72245 27.92839 38843 ft 464 kts 158°
2026-05-06 10:01 72.66233 28.00743 38843 ft 464 kts 158°
2026-05-06 10:02 72.60216 28.08592 38840 ft 464 kts 159°
2026-05-06 10:02 72.54196 28.16389 38840 ft 464 kts 159°
2026-05-06 10:03 72.48172 28.24136 38832 ft 464 kts 159°
2026-05-06 10:03 72.42143 28.31835 38833 ft 464 kts 159°
2026-05-06 10:04 72.36108 28.39486 38832 ft 464 kts 159°
2026-05-06 10:04 72.30076 28.47077 38826 ft 464 kts 159°
2026-05-06 10:05 72.24047 28.54616 38826 ft 464 kts 159°
2026-05-06 10:05 72.18044 28.62065 38825 ft 464 kts 160°
2026-05-06 10:06 72.12006 28.69506 38822 ft 464 kts 160°
2026-05-06 10:06 72.05959 28.76910 38823 ft 464 kts 160°
2026-05-06 10:07 71.99905 28.84268 38823 ft 464 kts 160°
2026-05-06 10:07 71.93855 28.91569 38818 ft 464 kts 160°
2026-05-06 10:08 71.87808 28.98815 38818 ft 464 kts 160°
2026-05-06 10:08 71.81748 29.06030 38816 ft 464 kts 160°
2026-05-06 10:09 71.75697 29.13184 38813 ft 464 kts 161°
2026-05-06 10:09 71.69633 29.20308 38814 ft 464 kts 161°
2026-05-06 10:10 71.63586 29.27369 38816 ft 464 kts 160°
2026-05-06 10:10 71.57516 29.34409 38813 ft 464 kts 160°
2026-05-06 10:11 71.51494 29.41352 38812 ft 464 kts 160°
2026-05-06 10:11 71.45426 29.48300 38813 ft 464 kts 160°
2026-05-06 10:12 71.39366 29.55192 38805 ft 464 kts 160°
2026-05-06 10:12 71.33285 29.62061 38804 ft 464 kts 161°
2026-05-06 10:13 71.27209 29.68883 38807 ft 463 kts 161°
2026-05-06 10:13 71.22174 29.74501 38807 ft 463 kts 161°
2026-05-06 10:14 71.16115 29.81224 38808 ft 463 kts 161°
2026-05-06 10:14 71.10033 29.87927 38808 ft 463 kts 161°
2026-05-06 10:15 71.03959 29.94578 38806 ft 464 kts 161°
2026-05-06 10:15 70.97968 30.02097 38814 ft 466 kts 155°
2026-05-06 10:16 70.92080 30.10425 38785 ft 466 kts 158°
2026-05-06 10:16 70.86169 30.18331 38793 ft 463 kts 157°
2026-05-06 10:17 70.80296 30.26441 38793 ft 462 kts 156°
2026-05-06 10:17 70.74472 30.34483 38786 ft 463 kts 156°
2026-05-06 10:18 70.68584 30.42560 38783 ft 462 kts 157°
2026-05-06 10:18 70.65715 30.46479 38442 ft 456 kts 156°
2026-05-06 10:18 70.62827 30.50408 37846 ft 453 kts 156°
2026-05-06 10:19 70.59974 30.54277 37427 ft 447 kts 157°
2026-05-06 10:19 70.57163 30.58079 37079 ft 439 kts 157°
2026-05-06 10:19 70.54402 30.61800 36851 ft 429 kts 157°
2026-05-06 10:19 70.51684 30.65456 36709 ft 432 kts 158°
2026-05-06 10:20 70.48919 30.69160 36505 ft 442 kts 157°
2026-05-06 10:20 70.46091 30.72940 35976 ft 445 kts 157°
2026-05-06 10:20 70.43268 30.76700 35371 ft 445 kts 157°
2026-05-06 10:20 70.40441 30.80453 34807 ft 444 kts 157°
2026-05-06 10:21 70.37621 30.84185 34290 ft 442 kts 157°
2026-05-06 10:21 70.34813 30.87893 33758 ft 441 kts 157°
2026-05-06 10:21 70.32019 30.91570 33153 ft 439 kts 157°
2026-05-06 10:21 70.29229 30.95232 32596 ft 436 kts 157°
2026-05-06 10:22 70.26466 30.98848 32099 ft 432 kts 157°
2026-05-06 10:22 70.23737 31.02407 31609 ft 428 kts 158°
2026-05-06 10:22 70.21015 31.05945 31110 ft 425 kts 157°
2026-05-06 10:22 70.18318 31.09441 30609 ft 422 kts 158°
2026-05-06 10:23 70.15641 31.12904 30131 ft 419 kts 158°
2026-05-06 10:23 70.12994 31.16317 29632 ft 416 kts 158°
2026-05-06 10:23 70.10351 31.19716 29088 ft 412 kts 157°
2026-05-06 10:23 70.07744 31.23059 28637 ft 406 kts 158°
2026-05-06 10:24 70.05118 31.25919 28131 ft 401 kts 162°
2026-05-06 10:24 70.02507 31.28623 27735 ft 395 kts 162°
2026-05-06 10:24 69.99938 31.31322 27352 ft 389 kts 161°
2026-05-06 10:24 69.97403 31.33997 26941 ft 385 kts 161°
2026-05-06 10:25 69.94900 31.36639 26539 ft 381 kts 161°
2026-05-06 10:25 69.92418 31.39253 26134 ft 377 kts 162°
2026-05-06 10:25 69.89963 31.41836 25747 ft 373 kts 161°
2026-05-06 10:25 69.87532 31.44387 25363 ft 370 kts 162°
2026-05-06 10:26 69.85119 31.46913 24982 ft 367 kts 162°
2026-05-06 10:26 69.82717 31.49421 24608 ft 364 kts 161°
2026-05-06 10:26 69.80346 31.51890 24229 ft 361 kts 162°
2026-05-06 10:26 69.77998 31.54328 23863 ft 358 kts 162°
2026-05-06 10:27 69.75662 31.56752 23511 ft 356 kts 162°
2026-05-06 10:27 69.73337 31.59155 23105 ft 353 kts 162°
2026-05-06 10:27 69.71037 31.61528 22709 ft 350 kts 163°
2026-05-06 10:27 69.68752 31.63879 22347 ft 346 kts 163°
2026-05-06 10:28 69.66498 31.66196 22013 ft 342 kts 162°
2026-05-06 10:28 69.64298 31.68450 21664 ft 338 kts 162°
2026-05-06 10:28 69.62091 31.70705 21327 ft 335 kts 163°
2026-05-06 10:28 69.59903 31.72937 20980 ft 331 kts 163°
2026-05-06 10:29 69.57742 31.75138 20657 ft 328 kts 163°
2026-05-06 10:29 69.55611 31.77303 20332 ft 324 kts 162°
2026-05-06 10:29 69.53492 31.79450 20009 ft 321 kts 162°
2026-05-06 10:29 69.51401 31.81567 19703 ft 318 kts 162°
2026-05-06 10:30 69.49324 31.83663 19382 ft 315 kts 163°
2026-05-06 10:30 69.47266 31.85742 19072 ft 315 kts 162°
2026-05-06 10:30 69.45250 31.88346 18688 ft 320 kts 156°
2026-05-06 10:30 69.43236 31.91119 18379 ft 323 kts 157°
2026-05-06 10:31 69.41206 31.93867 18070 ft 323 kts 157°
2026-05-06 10:31 69.39175 31.96582 17712 ft 323 kts 157°
2026-05-06 10:31 69.37151 31.99269 17377 ft 320 kts 157°
2026-05-06 10:31 69.35145 32.01919 17046 ft 316 kts 157°
2026-05-06 10:32 69.33170 32.04524 16733 ft 313 kts 157°
2026-05-06 10:32 69.31204 32.07109 16406 ft 310 kts 158°
2026-05-06 10:32 69.29258 32.09659 16101 ft 306 kts 157°
2026-05-06 10:32 69.27333 32.12177 15783 ft 304 kts 157°
2026-05-06 10:33 69.25403 32.14701 15484 ft 308 kts 157°
2026-05-06 10:33 69.23447 32.17249 15182 ft 312 kts 157°
2026-05-06 10:33 69.21466 32.19826 14849 ft 314 kts 157°
2026-05-06 10:33 69.19489 32.22392 14540 ft 314 kts 157°
2026-05-06 10:34 69.17499 32.24971 14193 ft 314 kts 157°
2026-05-06 10:34 69.15522 32.27528 13869 ft 314 kts 158°
2026-05-06 10:34 69.13534 32.30095 13548 ft 314 kts 158°
2026-05-06 10:34 69.11555 32.32645 13182 ft 312 kts 157°
2026-05-06 10:35 69.09595 32.35166 12849 ft 309 kts 157°
2026-05-06 10:35 69.07651 32.37660 12527 ft 306 kts 158°
2026-05-06 10:35 69.05727 32.40123 12227 ft 302 kts 157°
2026-05-06 10:35 69.03826 32.42553 11910 ft 299 kts 157°
2026-05-06 10:36 69.01935 32.44965 11621 ft 297 kts 157°
2026-05-06 10:36 69.00060 32.47357 11336 ft 295 kts 157°
2026-05-06 10:36 68.98202 32.49726 10988 ft 293 kts 157°
2026-05-06 10:36 68.96299 32.51781 10648 ft 294 kts 169°
2026-05-06 10:37 68.94278 32.52474 10305 ft 292 kts 174°
2026-05-06 10:37 68.92266 32.53167 9999 ft 290 kts 173°
2026-05-06 10:37 68.90283 32.53859 9850 ft 282 kts 173°
2026-05-06 10:37 68.88388 32.54500 9643 ft 276 kts 173°
2026-05-06 10:38 68.86486 32.55155 9297 ft 277 kts 173°
2026-05-06 10:38 68.84579 32.55804 8972 ft 275 kts 173°
2026-05-06 10:38 68.82685 32.56449 8673 ft 273 kts 173°
2026-05-06 10:38 68.80810 32.57087 8369 ft 271 kts 173°
2026-05-06 10:39 68.78953 32.57717 8108 ft 268 kts 173°
2026-05-06 10:39 68.77123 32.58337 7888 ft 262 kts 173°
2026-05-06 10:39 68.75291 32.58956 7632 ft 268 kts 173°
2026-05-06 10:39 68.73401 32.59593 7368 ft 273 kts 173°
2026-05-06 10:40 68.71507 32.60232 7091 ft 275 kts 173°
2026-05-06 10:40 68.69626 32.60863 6828 ft 274 kts 173°
2026-05-06 10:40 68.67772 32.61686 6654 ft 267 kts 161°
2026-05-06 10:40 68.66160 32.64115 6345 ft 264 kts 144°
2026-05-06 10:41 68.64627 32.66917 6014 ft 265 kts 145°
2026-05-06 10:41 68.63086 32.69725 5642 ft 267 kts 145°
2026-05-06 10:41 68.61541 32.72548 5293 ft 268 kts 145°
2026-05-06 10:41 68.60183 32.75965 4898 ft 266 kts 118°
2026-05-06 10:42 68.59745 32.80638 4812 ft 246 kts 83°
2026-05-06 10:42 68.60209 32.84872 4881 ft 222 kts 58°
2026-05-06 10:42 68.60977 32.88394 4874 ft 210 kts 56°
2026-05-06 10:42 68.61747 32.91777 4930 ft 210 kts 55°
2026-05-06 10:43 68.62537 32.95140 4898 ft 209 kts 53°
2026-05-06 10:43 68.63493 32.97874 4900 ft 190 kts 24°
2026-05-06 10:43 68.64738 32.98435 4800 ft 181 kts 350°
2026-05-06 10:44 68.66838 32.95594 4574 ft 164 kts 330°
2026-05-06 10:44 68.67836 32.93877 4063 ft 172 kts 329°
2026-05-06 10:44 68.68855 32.92096 3534 ft 175 kts 329°
2026-05-06 10:44 68.69864 32.90308 3028 ft 175 kts 328°
2026-05-06 10:45 68.70891 32.88464 2422 ft 176 kts 328°
2026-05-06 10:45 68.71913 32.86619 1815 ft 175 kts 328°
2026-05-06 10:45 68.72923 32.84785 1250 ft 173 kts 327°
2026-05-06 10:45 68.73880 32.83033 1045 ft 156 kts 328°
2026-05-06 10:46 68.74764 32.81418 1139 ft 151 kts 328°
2026-05-06 10:46 68.75643 32.79817 1078 ft 145 kts 327°
2026-05-06 10:46 68.76465 32.78313 628 ft 143 kts 328°
2026-05-06 10:46 68.77279 32.76850 308 ft 136 kts 326°
2026-05-06 10:47 68.77957 32.75595 275 ft 86 kts 327°
2026-05-06 10:47 68.78193 32.75175 274 ft 13 kts 325°
2026-05-06 10:47 68.78273 32.75068 275 ft 14 kts
2026-05-06 10:47 68.78340 32.75244 273 ft 10 kts 54°
2026-05-06 10:48 68.78380 32.75411 273 ft 11 kts 57°
2026-05-06 10:48 68.78412 32.75516 273 ft 4 kts 10°
2026-05-06 10:48 68.78437 32.75490 273 ft 5 kts 327°
2026-05-06 10:48 68.78459 32.75452 273 ft 0 kts 327°